Location: Brachbach
(49.1847°N, 9.7240°E)
Time: 20:49:24
(UTC+00:00)

BEESAT - Visible Passes

Search period start: 16 March 2026 00:00
Search period end: 26 March 2026 00:00
Orbit: 684 x 692 km, 98.4° (Epoch: 15 March)

Date Brightness Start Highest point End Pass type
(mag) Time Alt. Az. Time Alt. Az. Time Alt. Az.
16 Mar ? 23:42:58 10° N 23:43:05 11° N 23:43:05 11° N visible
18 Mar ? 00:21:53 10° NNW 00:21:58 10° NNW 00:21:58 10° NNW visible
18 Mar ? 23:21:59 10° N 23:22:14 11° N 23:22:14 11° N visible
20 Mar ? 00:00:39 10° N 00:01:06 12° N 00:01:06 12° N visible
20 Mar ? 23:01:07 10° NNE 23:01:23 11° NNE 23:01:23 11° NNE visible
21 Mar ? 00:39:51 10° NNW 00:39:58 10° NNW 00:39:58 10° NNW visible
21 Mar ? 23:39:34 10° N 23:40:14 14° N 23:40:14 14° N visible
22 Mar ? 22:40:21 10° NNE 22:40:31 11° NNE 22:40:31 11° NNE visible
23 Mar ? 00:18:25 10° N 00:19:06 13° NNW 00:19:06 13° NNW visible
23 Mar ? 23:18:36 10° N 23:19:22 15° N 23:19:22 15° N visible
24 Mar ? 23:57:12 10° N 23:58:14 16° N 23:58:14 16° N visible
25 Mar ? 22:57:43 10° NNE 22:58:29 15° NNE 22:58:29 15° NNE visible
